{"data":{"norad_id":53212,"intl_designator":"2022-084Z","name":"STARLINK-4416","alt_names":[],"object_type":"PAYLOAD","status":"ACTIVE","operator":null,"country":"US","launch_date":"2022-07-22","launch_site_code":"AFWTR","launch_vehicle":null,"mission":null,"orbit_class":"UNKNOWN","rcs_meters":null,"size_class":null,"mass_kg":null,"dimensions":null,"purposes":["comms"],"wikipedia_slug":null,"has_3d_model":false,"image_url":null,"decayed_at":null,"tle_current":{"epoch":"2026-05-25T03:16:51.299040Z","epoch_age_seconds":57219,"freshness":"FRESH","line1":"1 53212U 22084Z   26145.13670485 -.00002155  00000+0 -14528-3 0  9998","line2":"2 53212  97.4497 206.1987 0001944 110.3403 249.8033 15.05669701210875","mean_motion":15.05669701,"eccentricity":0.0001944,"inclination_deg":97.4497,"raan_deg":206.1987,"arg_perigee_deg":110.3403,"mean_anomaly_deg":249.8033,"bstar":-0.00014528,"rev_number":21087,"period_min":95.638505513103,"perigee_km":548.10400078021,"apogee_km":550.79744688724,"semimajor_km":6927.5877238337,"source":"CELESTRAK","updated_at":"2026-05-25T13:38:17.354189Z"}}}